Location: 3 Angels Observatory
(30.5437°N, 88.5068°W)
Time: 17:23:21
(UTC-05:00)

Daily predictions for brighter satellites

Satellite Brightness Start Highest point End
(mag) Time Altitude Azimuth Time Altitude Azimuth Time Altitude Azimuth
Cosmos 2333 Rocket 3.4 20:08:35 10° SW 20:14:00 48° WNW 20:19:28 10° N
Meteor 1-19 Rocket 4.5 20:09:28 10° SSE 20:14:52 48° E 20:20:13 10° NNE
METEOR-M 4.2 20:11:15 10° SSE 20:16:36 87° WSW 20:21:59 10° NNW
CZ-4B DEB 3.3 20:13:21 10° S 20:16:39 66° W 20:19:58 10° NNW
Cosmos 1844 Rocket 3.4 20:16:19 10° NNW 20:21:51 57° WSW 20:27:19 10° S
FENGYUN 3A 4.0 20:19:36 10° SSE 20:24:45 50° ENE 20:29:56 10° N
Cosmos 1844 4.0 20:21:30 10° NNW 20:27:16 72° WSW 20:33:01 10° S
H-2A R/B 3.2 20:23:36 10° SSE 20:27:21 45° ENE 20:31:08 10° N
ISS -2.0 20:26:49 10° S 20:29:20 21° SE 20:31:51 10° ENE
PSLV R/B 3.7 20:25:53 10° WSW 20:29:23 71° NNW 20:32:56 10° NE
Cosmos 1726 Rocket 4.2 20:25:51 10° NNE 20:29:57 36° E 20:34:00 10° SSE
OTV 4 1.1 20:27:39 10° WNW 20:30:30 44° SSW 20:32:59 13° SE
Cosmos 494 Rocket 3.9 20:31:20 10° S 20:36:24 73° ESE 20:41:30 10° NNE
CZ-2C R/B 1.9 20:36:31 17° ESE 20:37:27 21° ENE 20:39:18 10° NNE
Cosmos 2233 Rocket 4.0 20:31:41 10° N 20:37:56 86° E 20:44:07 10° S
CZ-4 DEB 2.7 20:35:01 10° SSE 20:38:13 68° ENE 20:41:26 10° N
YAOGAN 11 4.2 20:38:32 10° SSE 20:42:51 59° ENE 20:47:06 10° N
GEOS 3 Rocket 3.9 20:38:41 13° SE 20:43:22 58° NE 20:48:30 10° NNW
Cosmos 2058 Rocket 3.6 20:39:34 10° NNE 20:43:40 39° E 20:46:56 15° SE
Hubble Space Telescope 2.9 20:41:46 10° WSW 20:44:15 15° SSW 20:46:44 10° SSE
Cosmos 1464 Rocket 4.4 20:42:11 10° N 20:48:00 44° E 20:53:01 14° SSE
IUS-1 SRM-2 3.6 20:48:07 10° WSW 20:49:52 14° SSW 20:50:49 12° S
ALOS 2.3 20:45:20 10° S 20:49:59 82° WSW 20:54:40 10° NNW
Aureole 2 Rocket 2.6 20:46:27 10° S 20:50:33 70° ESE 20:54:18 10° NNE
deb Chang Zheng 4 3.5 20:52:39 10° NNE 20:57:03 79° ESE 21:01:24 10° S
Cosmos 2278 Rocket 2.9 20:56:04 10° NNW 21:01:34 53° WSW 21:07:02 10° S
Fermi 4.3 21:00:23 10° WSW 21:04:12 38° S 21:05:37 28° SE
Cosmos 1606 Rocket 4.0 21:01:49 10° NNW 21:06:11 62° W 21:10:29 10° S
Cosmos 2034 Rocket 4.4 21:00:31 10° N 21:06:38 47° E 21:10:30 22° SE
Atlas Centaur 2 2.9 20:59:21 10° WSW 21:06:38 69° SSE 21:15:04 10° E
Cosmos 1331 Rocket 3.9 21:01:32 10° NNW 21:06:44 77° ENE 21:10:15 21° SSE
H-2A R/B 2.0 21:05:22 23° SSE 21:07:53 63° ENE 21:12:08 10° N
SeaSat 1 3.7 21:07:21 20° E 21:09:30 27° ENE 21:13:37 10° N
Meteor 1-15 Rocket 4.2 21:08:37 10° N 21:14:11 64° E 21:17:41 23° SSE
DEBRIS 4.3 21:11:11 10° NNW 21:14:18 18° NNE 21:15:34 14° NE
SL-16 R/B 3.8 21:10:35 10° SW 21:15:45 36° WNW 21:20:56 10° N
PSLV R/B 4.4 21:16:10 27° ENE 21:16:10 27° ENE 21:18:38 10° NNE
Cosmos 1626 Rocket 3.5 21:13:36 20° S 21:16:37 65° E 21:21:01 10° NNE
Cosmos 1302 Rocket 4.2 21:11:45 10° N 21:16:52 53° ENE 21:19:13 30° SE
Cosmos 1666 2.7 21:15:12 10° N 21:19:05 65° E 21:20:23 38° SSE
Cosmos 1939 Rocket 3.0 21:17:37 33° SE 21:19:17 62° ENE 21:23:23 10° N
CZ-4B R/B 3.9 21:16:20 10° NNE 21:21:09 40° E 21:22:53 31° SE
COSMOS 2455 2.8 21:17:29 10° SSW 21:23:23 65° ESE 21:29:20 10° NNE
Milstar 3 Cent rocket 2.8 21:18:43 10° W 21:25:57 46° SSW 21:27:55 32° SSE
Gbstr 26 Del rocket 4.5 21:24:55 10° NW 21:32:30 81° SW 21:36:55 31° SE
Cosmos 2228 3.1 21:28:47 10° N 21:33:12 78° W 21:35:07 33° S
ATLAS 3B R/B 3.2 21:26:12 10° S 21:33:21 44° ESE 21:40:29 10° NE
APEX 3.8 21:31:01 10° NNW 21:35:29 77° ENE 21:37:25 40° SSE
ERS-1 Rocket 3.8 21:36:58 17° SSW 21:40:33 45° W 21:45:21 10° NNW
Centaur D AC-28 2.3 21:39:16 10° W 21:42:45 36° SSW 21:42:46 36° SSW
Cosmos 1515 4.2 21:43:53 47° ENE 21:43:53 47° ENE 21:47:02 10° NNE
Envisat 2.9 21:42:41 40° S 21:44:35 87° WSW 21:49:41 10° NNW
Cosmos 1603 4.3 21:39:05 10° SSW 21:44:35 57° WNW 21:50:07 10° N
USA 234 4.2 21:45:49 24° E 21:48:58 38° NE 21:54:54 10° NNW
Abrixas rocket 3.2 21:48:36 10° NW 21:51:25 43° N 21:51:25 43° N
Lacrosse 4 Rocket 3.7 21:59:11 14° NE 21:59:11 14° NE 21:59:47 10° NE
YAOGAN 6 3.5 22:02:20 44° NNE 22:02:20 44° NNE 22:05:04 10° N
Delta 168 4.2 21:59:36 10° WSW 22:01:43 30° SW 22:01:43 30° SW
ISS -0.9 22:02:57 10° W 22:05:39 24° NW 22:08:22 10° NNE
USA 81 4.1 22:02:54 10° N 22:08:02 59° E 22:08:02 59° E
Cosmos 1943 3.1 22:07:20 47° SSW 22:09:04 88° ESE 22:14:47 10° NNE
CZ-4 R/B 3.9 22:09:54 10° N 22:14:54 82° WNW 22:15:27 70° SW
SPOT 5 3.5 22:15:35 39° WSW 22:16:07 41° W 22:20:15 10° NNW
MetOp-A 4.4 22:16:40 54° SSW 22:17:36 64° WSW 22:22:55 10° NNW
Cosmos 1461 3.7 22:15:21 10° NW 22:18:39 48° WNW 22:18:39 48° WNW
Cosmos 1943 Rocket 4.2 22:20:35 10° NNE 22:23:31 15° ENE 22:23:31 15° ENE
Cosmos 1825 Rocket 4.1 22:26:46 56° NW 22:26:46 56° NW 22:30:43 10° N
SL-08 RB Rocket 4.3 22:27:20 51° NNE 22:27:20 51° NNE 22:30:51 10° N
H-2A R/B 3.1 22:28:49 33° NE 22:28:49 33° NE 22:32:17 10° N
Cosmos 1992 Rocket 4.1 22:23:31 10° NNW 22:28:11 67° NNE 22:28:11 67° NNE
SPOT 1/Viking Rocket 3.9 22:36:21 58° W 22:36:21 58° W 22:41:22 10° NNW
Terra 3.1 22:39:33 33° NNE 22:39:33 33° NNE 22:42:32 10° N
Cosmos 2142 Rocket 4.4 22:35:39 10° N 22:41:56 79° W 22:42:13 77° SW
SeaSat 1 3.8 22:47:09 29° WSW 22:47:09 29° WSW 22:51:09 10° NW
ARGOS 3.7 22:52:05 53° W 22:52:05 53° W 22:57:01 10° NNW
Cosmos 1634 Rocket 4.2 22:47:16 10° NNW 22:53:18 59° W 22:53:37 59° WSW
Atlas Centaur 2 2.9 22:48:32 10° W 22:56:40 90° SSE 22:58:15 64° E
Cosmos 2369 Rocket 2.6 22:53:41 10° NNW 22:58:16 60° NNW 22:58:16 60° NNW
Cosmos 2279 Rocket 4.3 23:11:41 10° NNW 23:17:07 61° NW 23:17:07 61° NW
COSMOS 2406 4.4 23:21:08 36° NNE 23:21:08 36° NNE 23:24:24 10° NNE
ATLAS 3B R/B 4.2 23:17:14 10° WSW 23:24:09 36° NW 23:31:00 10° N
USA 234 4.0 23:33:09 44° W 23:33:09 44° W 23:38:05 10° NW
Lacrosse 4 Rocket 4.4 23:35:28 13° NW 23:35:28 13° NW 23:36:47 10° NNW
